Hourly Data Report for October 11, 2014

All times are specified in Local Standard Time (LST). Add 1 hour to adjust for Daylight Saving Time where and when it is observed.

ST LEONARD CS
NEW BRUNSWICK

47°09'28.050" N
67°49'55.014" W
245.00 m
810I001
71019
WIY

Download Data

Hourly Data (October 2014)
Hourly Data Report for October 11, 2014
Temp Definition
°C
Dew Point Temp Definition
°C
Rel Hum Definition
%
Wind Dir Definition
10's deg

Wind Spd Definition
km/h
Visibility Definition
km
Stn Press Definition
kPa
Hmdx Definition


Wind Chill Definition


Weather Definition


TIME
00:00 4.0 2.3 89 0 1   98.67     LegendNANA
01:00 2.4 1.5 94 36 LegendMM   98.66     LegendNANA
02:00 2.6 2.1 96 17 4   98.71     LegendNANA
03:00 0.8 0.2 96 16 2   98.73     LegendNANA
04:00 1.7 1.4 98 18 2   98.78     LegendNANA
05:00 0.7 0.5 99 15 3   98.79     LegendNANA
06:00 0.8 0.6 99 15 3   98.82     LegendNANA
07:00 0.1 0.0 99 0 1   98.88     LegendNANA
08:00 3.1 2.3 95 20 3   98.91     LegendNANA
09:00 3.9 2.9 93 26 1   98.95     LegendNANA
10:00 4.2 3.4 95 28 3   98.91     LegendNANA
11:00 4.7 3.5 92 26 1   98.91     LegendNANA
12:00 6.7 4.5 86 0 1   98.87     LegendNANA
13:00 7.7 4.0 77 20 LegendMM   98.81     LegendNANA
14:00 7.6 4.8 83 12 3   98.75     LegendNANA
15:00 8.4 5.0 79 13 4   98.70     LegendNANA
16:00 8.4 5.1 80 14 3   98.68     LegendNANA
17:00 8.1 4.8 80 16 1   98.68     LegendNANA
18:00 7.2 4.5 83 16 1   98.67     LegendNANA
19:00 6.9 4.0 82 18 1   98.68     LegendNANA
20:00 6.5 3.5 81 0 1   98.67     LegendNANA
21:00 4.2 2.9 91 11 LegendMM   98.67     LegendNANA
22:00 5.3 4.0 91 29 5   98.72     LegendNANA
23:00 5.0 3.9 93   0   98.70     LegendNANA

Notes on Data Quality.

Legend

  • E = Estimated
  • M = Missing
  • NA = Not Available
  • ‡ = Partner data that is not subject to review by the National Climate Archives
Date modified: